User: anonymous   Login
Location: NJAA Observatory
(40.6819°N, 74.8979°W)
Time: 23:00:38
(UTC-04:00)
Language:

Meteor 2-9 Rocket - Orbit

View from above orbital plane
View from above orbital plane
View from above satellite
View from above satellite

Ground track
Ground track

The orbit data is extracted from the following two-line orbital elements,

1 13719U 82116B   18147.75390420  .00000055  00000-0  20918-4 0  9994
2 13719  81.2561  22.8248 0072701  89.7836 335.2072 14.14624270829080
Epoch (UTC): 27 May 2018 18:05:37
Eccentricity: 0.0072701
inclination: 81.2561°
perigee height: 791 km
apogee height: 896 km
right ascension of ascending node: 22.8248°
argument of perigee: 89.7836°
revolutions per day: 14.14624270
mean anomaly at epoch: 335.2072°
orbit number at epoch: 82908

The dashed part of the orbit path shows where the satellite is in the earth's shadow,  

DLR